Weather History for KXPY - January, 2014

Change the Weather History Date:

Thursday, January 9, 2014

  Actual Average Record
Temperature  
Mean Temperature 53 °F -  
Max Temperature 60 °F - - ()
Min Temperature 46 °F - - ()
Degree Days  
Heating Degree Days 12    
Growing Degree Days 3 (Base 50)    
Moisture  
Dew Point 50 °F    
Average Humidity 87    
Maximum Humidity 100    
Minimum Humidity 72    
Precipitation  
Precipitation 0.00 in - - ()
Sea Level Pressure  
Sea Level Pressure 30.27 in    
Wind  
Wind Speed 8 mph (ENE)    
Max Wind Speed 14 mph    
Max Gust Speed 21 mph    
Visibility 9 miles    
Events      
Averages and records for this station are not official NWS values.
T = Trace of Precipitation, MM = Missing Value Source: NWS Daily Summary

Daily Weather History Graph

Daily Weather History Graph

Search for Another Location

Airport or City:

Trip Planner

Search our weather history database for the weather conditions in past years. The results will help you decide how hot, cold, wet, or windy it might be!

Date:

Astronomy

Jan. 09, 2014 Rise Set
Actual Time 6:55 AM CST 5:20 PM CST
Civil Twilight 6:30 AM CST 5:46 PM CST
Nautical Twilight 6:00 AM CST 6:15 PM CST
Astronomical Twilight 5:32 AM CST 6:44 PM CST
Moon 12:37 PM CST (1/9) 1:15 AM CST (1/9)
Length of Visible Light 11h 15m
Length of Day
10h 24m
Waxing Gibbous, 66% of the Moon is Illuminated
Jan 9
Waxing Gibbous
Jan 15
Full
Jan 23
Last Quarter
Jan 30
New
Feb 6
First Quarter

Hourly Weather History & Observations

Time (CST) Temp. Windchill Dew Point Humidity Pressure Visibility Wind Dir Wind Speed Gust Speed Precip Events Conditions
12:15 AM 53.6 °F - 48.2 °F 82% 30.32 in 10.0 mi East 9.2 mph - N/A   Overcast
12:35 AM 53.6 °F - 46.4 °F 77% 30.32 in 10.0 mi East 8.1 mph - N/A   Mostly Cloudy
12:55 AM 51.8 °F - 46.4 °F 82% 30.32 in 10.0 mi ENE 6.9 mph - N/A   Overcast
1:15 AM 51.8 °F - 46.4 °F 82% 30.31 in 10.0 mi ENE 6.9 mph - N/A   Overcast
1:35 AM 50.0 °F - 46.4 °F 87% 30.30 in 10.0 mi ENE 8.1 mph - N/A   Mostly Cloudy
1:55 AM 50.0 °F - 46.4 °F 87% 30.30 in 10.0 mi NE 6.9 mph - N/A   Scattered Clouds
2:15 AM 48.2 °F - 44.6 °F 87% 30.30 in 10.0 mi ENE 8.1 mph - N/A   Partly Cloudy
2:35 AM 48.2 °F - 44.6 °F 87% 30.30 in 10.0 mi NE 6.9 mph 12.7 mph N/A   Partly Cloudy
2:55 AM 48.2 °F - 44.6 °F 87% 30.29 in 10.0 mi ENE 8.1 mph - N/A   Scattered Clouds
3:15 AM 48.2 °F - 44.6 °F 87% 30.29 in 10.0 mi ENE 5.8 mph - N/A   Partly Cloudy
3:35 AM 48.2 °F - 44.6 °F 87% 30.29 in 10.0 mi ENE 4.6 mph - N/A   Clear
3:55 AM 48.2 °F - 46.4 °F 93% 30.28 in 10.0 mi ENE 6.9 mph - N/A   Clear
4:15 AM 50.0 °F - 46.4 °F 87% 30.28 in 10.0 mi ENE 5.8 mph - N/A   Clear
4:35 AM 50.0 °F - 46.4 °F 87% 30.28 in 10.0 mi ENE 5.8 mph - N/A   Clear
4:55 AM 50.0 °F - 48.2 °F 94% 30.28 in 10.0 mi ENE 6.9 mph - N/A   Clear
5:15 AM 50.0 °F - 48.2 °F 94% 30.28 in 10.0 mi ENE 6.9 mph - N/A   Clear
5:35 AM 48.2 °F - 46.4 °F 93% 30.28 in 10.0 mi ENE 4.6 mph - N/A   Partly Cloudy
5:55 AM 48.2 °F - 46.4 °F 93% 30.28 in 10.0 mi NE 5.8 mph - N/A   Mostly Cloudy
6:15 AM 48.2 °F - 46.4 °F 93% 30.29 in 10.0 mi NNE 5.8 mph - N/A   Mostly Cloudy
6:35 AM 48.2 °F - 44.6 °F 87% 30.29 in 10.0 mi NE 4.6 mph - N/A   Mostly Cloudy
6:55 AM 48.2 °F - 44.6 °F 87% 30.30 in 9.0 mi NE 6.9 mph - N/A   Partly Cloudy
7:15 AM 48.2 °F - 46.4 °F 93% 30.31 in 10.0 mi NE 8.1 mph - N/A   Scattered Clouds
7:35 AM 48.2 °F - 46.4 °F 93% 30.31 in 10.0 mi NE 10.4 mph - N/A   Scattered Clouds
7:55 AM 46.4 °F 41.9 °F 44.6 °F 93% 30.32 in 9.0 mi NE 9.2 mph - N/A   Partly Cloudy
8:15 AM 48.2 °F - 44.6 °F 87% 30.32 in 10.0 mi NE 8.1 mph - N/A   Partly Cloudy
8:35 AM 48.2 °F - 46.4 °F 93% 30.32 in 10.0 mi NE 9.2 mph 20.7 mph N/A   Clear
8:55 AM 50.0 °F - 46.4 °F 87% 30.33 in 10.0 mi NE 9.2 mph - N/A   Clear
9:15 AM 50.0 °F - 46.4 °F 87% 30.33 in 10.0 mi NE 10.4 mph - N/A   Clear
9:35 AM 51.8 °F - 46.4 °F 82% 30.33 in 10.0 mi NE 12.7 mph - N/A   Clear
9:55 AM 51.8 °F - 46.4 °F 82% 30.34 in 10.0 mi NE 9.2 mph - N/A   Clear
10:15 AM 53.6 °F - 48.2 °F 82% 30.33 in 10.0 mi NE 9.2 mph - N/A   Clear
10:35 AM 53.6 °F - 48.2 °F 82% 30.33 in 10.0 mi NE 11.5 mph - N/A   Clear
10:55 AM 55.4 °F - 48.2 °F 77% 30.32 in 10.0 mi ENE 11.5 mph - N/A   Clear
11:15 AM 57.2 °F - 50.0 °F 77% 30.31 in 9.0 mi NE 10.4 mph - N/A   Scattered Clouds
11:35 AM 57.2 °F - 50.0 °F 77% 30.30 in 10.0 mi NNE 11.5 mph 17.3 mph N/A   Mostly Cloudy
11:55 AM 57.2 °F - 50.0 °F 77% 30.29 in 10.0 mi NE 10.4 mph - N/A   Partly Cloudy
12:15 PM 57.2 °F - 50.0 °F 77% 30.27 in 10.0 mi ENE 11.5 mph - N/A   Mostly Cloudy
12:35 PM 57.2 °F - 51.8 °F 82% 30.26 in 10.0 mi NE 10.4 mph - N/A   Overcast
12:55 PM 57.2 °F - 50.0 °F 77% 30.25 in 9.0 mi ENE 9.2 mph - N/A   Overcast
1:15 PM 57.2 °F - 50.0 °F 77% 30.24 in 8.0 mi NE 9.2 mph - N/A   Overcast
1:35 PM 59.0 °F - 51.8 °F 77% 30.23 in 10.0 mi ENE 13.8 mph - N/A   Mostly Cloudy
1:55 PM 60.8 °F - 51.8 °F 72% 30.23 in 9.0 mi ENE 12.7 mph - N/A   Mostly Cloudy
2:15 PM 60.8 °F - 51.8 °F 72% 30.23 in 10.0 mi ENE 13.8 mph - N/A   Mostly Cloudy
2:35 PM 60.8 °F - 51.8 °F 72% 30.22 in 10.0 mi ENE 12.7 mph 18.4 mph N/A   Mostly Cloudy
2:55 PM 59.0 °F - 53.6 °F 82% 30.23 in 9.0 mi ENE 10.4 mph 18.4 mph N/A   Partly Cloudy
3:15 PM 60.8 °F - 53.6 °F 77% 30.22 in 10.0 mi ENE 11.5 mph - N/A   Partly Cloudy
3:35 PM 59.0 °F - 53.6 °F 82% 30.22 in 10.0 mi ENE 11.5 mph - N/A   Mostly Cloudy
3:55 PM 59.0 °F - 53.6 °F 82% 30.23 in 10.0 mi ENE 12.7 mph - N/A   Overcast
4:15 PM 59.0 °F - 53.6 °F 82% 30.22 in 9.0 mi East 9.2 mph 16.1 mph N/A   Mostly Cloudy
5:15 PM 57.2 °F - 53.6 °F 88% 30.23 in 9.0 mi ENE 8.1 mph - N/A   Clear
5:35 PM 57.2 °F - 53.6 °F 88% 30.23 in 9.0 mi ENE 6.9 mph - N/A   Partly Cloudy
5:55 PM 57.2 °F - 53.6 °F 88% 30.23 in 10.0 mi ENE 6.9 mph - N/A   Clear
6:15 PM 57.2 °F - 53.6 °F 88% 30.23 in 10.0 mi East 8.1 mph - N/A   Partly Cloudy
6:35 PM 57.2 °F - 53.6 °F 88% 30.23 in 10.0 mi East 6.9 mph - N/A   Clear
6:55 PM 57.2 °F - 53.6 °F 88% 30.24 in 10.0 mi ENE 8.1 mph - N/A   Clear
7:15 PM 57.2 °F - 55.4 °F 94% 30.24 in 9.0 mi East 9.2 mph - N/A   Clear
7:35 PM 57.2 °F - 55.4 °F 94% 30.24 in 10.0 mi ENE 8.1 mph - N/A   Clear
7:55 PM 57.2 °F - 55.4 °F 94% 30.24 in 9.0 mi ENE 8.1 mph - N/A   Partly Cloudy
8:15 PM 57.2 °F - 55.4 °F 94% 30.24 in 8.0 mi East 8.1 mph - N/A   Partly Cloudy
8:35 PM 57.2 °F - 55.4 °F 94% 30.25 in 8.0 mi East 8.1 mph - N/A   Clear
8:55 PM 57.2 °F - 55.4 °F 94% 30.24 in 9.0 mi East 8.1 mph - N/A   Clear
9:15 PM 57.2 °F - 55.4 °F 94% 30.24 in 7.0 mi ENE 9.2 mph - N/A   Clear
9:35 PM 57.2 °F - 55.4 °F 94% 30.23 in 7.0 mi ENE 6.9 mph - N/A   Partly Cloudy
9:55 PM 57.2 °F - 55.4 °F 94% 30.22 in 7.0 mi East 9.2 mph - N/A   Clear
10:15 PM 57.2 °F - 55.4 °F 94% 30.22 in 7.0 mi East 9.2 mph - N/A   Clear
10:35 PM 57.2 °F - 55.4 °F 94% 30.22 in 7.0 mi East 9.2 mph 15.0 mph N/A   Clear
10:55 PM 57.2 °F - 55.4 °F 94% 30.21 in 7.0 mi East 9.2 mph - N/A   Clear
11:15 PM 57.2 °F - 55.4 °F 94% 30.21 in 7.0 mi East 9.2 mph - N/A   Clear
11:35 PM 57.2 °F - 55.4 °F 94% 30.20 in 7.0 mi East 6.9 mph - N/A   Clear
11:55 PM 57.2 °F - 57.2 °F 100% 30.19 in 7.0 mi East 8.1 mph - N/A   Clear